| time (UTC) | temp F | wind direction | speed MPH | gust MPH | rain 1hr in | rain 24hr in | rain mn in | humidity % | barometer mb |
| 20260901160039 | 87 | 259 | 5.0 | 11.0 | 0.00 | 0.00 | 0.00 | 57 | 1016.6 |
| 20260901160027 | 88 | 270 | 5.0 | 10.0 | 0.00 | 0.00 | 0.00 | 57 | 1015.4 |
| 20260901154547 | 86 | 279 | 5.0 | 11.0 | 0.00 | 0.00 | 0.00 | 57 | 1016.4 |
| 20260901153045 | 85 | 252 | 4.0 | 10.0 | 0.00 | 0.00 | 0.00 | 60 | 1016.6 |
| 20260901151539 | 84 | 279 | 4.0 | 10.0 | 0.00 | 0.00 | 0.00 | 62 | 1016.7 |
| 20260901150040 | 83 | 265 | 3.0 | 10.0 | 0.00 | 0.00 | 0.00 | 63 | 1016.7 |
| 20260901150018 | 84 | 265 | 3.0 | 9.0 | 0.00 | 0.00 | 0.00 | 63 | 1015.4 |
| 20260901144540 | 82 | 251 | 3.0 | 8.0 | 0.00 | 0.00 | 0.00 | 66 | 1016.6 |
| 20260901143045 | 81 | 298 | 3.0 | 8.0 | 0.00 | 0.00 | 0.00 | 67 | 1016.6 |
| 20260901141546 | 80 | 255 | 4.0 | 9.0 | 0.00 | 0.00 | 0.00 | 68 | 1016.5 |
| 20260901140036 | 79 | 254 | 3.0 | 10.0 | 0.00 | 0.00 | 0.00 | 70 | 1016.7 |
| 20260901140021 | 79 | 254 | 3.0 | 7.0 | 0.00 | 0.00 | 0.00 | 71 | 1015.6 |
| 20260901134539 | 77 | 258 | 3.0 | 9.0 | 0.00 | 0.00 | 0.00 | 73 | 1016.6 |
| 20260901133036 | 75 | 266 | 3.0 | 7.0 | 0.00 | 0.00 | 0.00 | 75 | 1016.8 |
| 20260901131536 | 74 | 271 | 3.0 | 7.0 | 0.00 | 0.00 | 0.00 | 76 | 1016.6 |
| 20260901130034 | 73 | 0 | 1.0 | 6.0 | 0.00 | 0.00 | 0.00 | 78 | 1016.6 |
| 20260901130026 | 74 | 263 | 1.0 | 5.0 | 0.00 | 0.00 | 0.00 | 78 | 1015.6 |
| 20260901124540 | 72 | 0 | 1.0 | 4.0 | 0.00 | 0.00 | 0.00 | 79 | 1016.5 |
| 20260901123035 | 71 | 281 | 1.0 | 3.0 | 0.00 | 0.00 | 0.00 | 81 | 1016.5 |
| 20260901121536 | 71 | 0 | 0.0 | 2.0 | 0.00 | 0.00 | 0.00 | 80 | 1016.4 |
| 20260901120034 | 71 | 0 | 0.0 | 2.0 | 0.00 | 0.00 | 0.00 | 81 | 1016.2 |
| 20260901120021 | 71 | 279 | 0.0 | 2.0 | 0.00 | 0.00 | 0.00 | 81 | 1015.1 |
| 20260901114545 | 70 | 0 | 0.0 | 1.0 | 0.00 | 0.00 | 0.00 | 82 | 1016.1 |
| 20260901113037 | 70 | 0 | 0.0 | 1.0 | 0.00 | 0.00 | 0.00 | 83 | 1016.1 |
| 20260901111535 | 70 | 0 | 0.0 | 0.0 | 0.00 | 0.00 | 0.00 | 82 | 1015.9 |
| 20260901110051 | 71 | 257 | 0.0 | 0.0 | 0.00 | 0.00 | 0.00 | 81 | 1014.7 |
| 20260901110036 | 71 | 0 | 0.0 | 0.0 | 0.00 | 0.00 | 0.00 | 81 | 1015.8 |
| 20260901104537 | 71 | 0 | 0.0 | 2.0 | 0.00 | 0.00 | 0.00 | 80 | 1015.7 |
| 20260901103036 | 71 | 0 | 0.0 | 1.0 | 0.00 | 0.00 | 0.00 | 79 | 1015.6 |
| 20260901101538 | 72 | 0 | 0.0 | 1.0 | 0.00 | 0.00 | 0.00 | 79 | 1015.6 |
| 20260901100035 | 72 | 0 | 0.0 | 2.0 | 0.00 | 0.00 | 0.00 | 80 | 1015.4 |
| 20260901100023 | 72 | 250 | 1.0 | 2.0 | 0.00 | 0.00 | 0.00 | 80 | 1014.4 |
| 20260901094540 | 70 | 0 | 0.0 | 3.0 | 0.00 | 0.00 | 0.00 | 84 | 1015.2 |
| 20260901093037 | 70 | 0 | 0.0 | 0.0 | 0.00 | 0.00 | 0.00 | 86 | 1015.0 |
| 20260901091536 | 70 | 0 | 0.0 | 0.0 | 0.00 | 0.00 | 0.00 | 88 | 1015.0 |
| 20260901090046 | 70 | 0 | 0.0 | 1.0 | 0.00 | 0.00 | 0.00 | 89 | 1015.0 |
| 20260901090031 | 71 | 259 | 0.0 | 1.0 | 0.00 | 0.00 | 0.00 | 89 | 1013.9 |
| 20260901084535 | 70 | 0 | 0.0 | 0.0 | 0.00 | 0.00 | 0.00 | 89 | 1014.9 |
| 20260901083034 | 70 | 0 | 0.0 | 0.0 | 0.00 | 0.00 | 0.00 | 89 | 1014.7 |
| 20260901081537 | 70 | 0 | 0.0 | 0.0 | 0.00 | 0.00 | 0.00 | 90 | 1014.6 |
| 20260901080038 | 70 | 259 | 0.0 | 1.0 | 0.00 | 0.00 | 0.00 | 90 | 1013.5 |
| 20260901074535 | 70 | 0 | 0.0 | 0.0 | 0.00 | 0.00 | 0.00 | 89 | 1014.8 |
| 20260901073037 | 70 | 0 | 0.0 | 0.0 | 0.00 | 0.00 | 0.00 | 89 | 1014.9 |
| 20260901071537 | 70 | 0 | 0.0 | 1.0 | 0.00 | 0.00 | 0.00 | 87 | 1015.0 |
| 20260901070037 | 70 | 0 | 0.0 | 0.0 | 0.00 | 0.00 | 0.00 | 86 | 1015.0 |
| 20260901070027 | 71 | 259 | 0.0 | 0.0 | 0.00 | 0.00 | 0.00 | 86 | 1013.8 |
| 20260901064534 | 71 | 0 | 0.0 | 0.0 | 0.00 | 0.00 | 0.00 | 85 | 1015.2 |
| 20260901063036 | 71 | 0 | 0.0 | 0.0 | 0.00 | 0.00 | 0.00 | 84 | 1015.2 |
| 20260901061534 | 72 | 0 | 0.0 | 0.0 | 0.00 | 0.00 | 0.00 | 82 | 1015.3 |
| 20260901060037 | 74 | 259 | 0.0 | 0.0 | 0.00 | 0.00 | 0.00 | 81 | 1014.2 |
| 20260901060035 | 73 | 0 | 0.0 | 0.0 | 0.00 | 0.00 | 0.00 | 80 | 1015.2 |
| 20260901054534 | 74 | 0 | 0.0 | 0.0 | 0.00 | 0.00 | 0.00 | 77 | 1015.2 |
| 20260901053039 | 75 | 0 | 0.0 | 0.0 | 0.00 | 0.00 | 0.00 | 76 | 1015.2 |
| 20260901051542 | 76 | 0 | 0.0 | 0.0 | 0.00 | 0.00 | 0.00 | 75 | 1015.2 |
| 20260901050034 | 76 | 0 | 0.0 | 1.0 | 0.00 | 0.00 | 0.00 | 71 | 1015.0 |
| 20260901050030 | 77 | 259 | 0.0 | 1.0 | 0.00 | 0.00 | 0.00 | 71 | 1013.9 |
| 20260901044552 | 77 | 0 | 0.0 | 0.0 | 0.00 | 0.00 | 0.00 | 71 | 1015.0 |
| 20260901043037 | 78 | 0 | 0.0 | 0.0 | 0.00 | 0.00 | 0.00 | 68 | 1014.8 |
| 20260901041534 | 79 | 0 | 0.0 | 2.0 | 0.00 | 0.00 | 0.00 | 67 | 1014.6 |
| 20260901040038 | 79 | 0 | 0.0 | 3.0 | 0.00 | 0.00 | 0.00 | 69 | 1014.7 |
| 20260901034537 | 78 | 260 | 0.0 | 4.0 | 0.00 | 0.00 | 0.00 | 71 | 1014.5 |
| 20260901033052 | 77 | 0 | 0.0 | 2.0 | 0.00 | 0.00 | 0.00 | 77 | 1014.3 |
| 20260901031537 | 77 | 0 | 0.0 | 1.0 | 0.00 | 0.00 | 0.00 | 82 | 1014.3 |
| 20260901030037 | 77 | 0 | 0.0 | 1.0 | 0.00 | 0.00 | 0.00 | 85 | 1014.2 |
| 20260901030021 | 78 | 285 | 0.0 | 1.0 | 0.00 | 0.00 | 0.00 | 86 | 1013.1 |
| 20260901024535 | 78 | 0 | 0.0 | 0.0 | 0.00 | 0.00 | 0.00 | 86 | 1014.2 |
| 20260901023034 | 78 | 0 | 0.0 | 0.0 | 0.00 | 0.00 | 0.00 | 85 | 1014.1 |
| 20260901021556 | 79 | 0 | 0.0 | 0.0 | 0.00 | 0.00 | 0.00 | 82 | 1013.9 |
| 20260901020057 | 80 | 285 | 0.0 | 0.0 | 0.00 | 0.00 | 0.00 | 80 | 1012.7 |
| 20260901020038 | 80 | 0 | 0.0 | 0.0 | 0.00 | 0.00 | 0.00 | 80 | 1013.8 |
| 20260901014533 | 81 | 0 | 0.0 | 0.0 | 0.00 | 0.00 | 0.00 | 77 | 1013.7 |
| 20260901013049 | 82 | 0 | 0.0 | 0.0 | 0.00 | 0.00 | 0.00 | 75 | 1013.6 |
| 20260901011551 | 83 | 0 | 0.0 | 0.0 | 0.00 | 0.00 | 0.00 | 74 | 1013.4 |
| 20260901010034 | 85 | 0 | 0.0 | 0.0 | 0.00 | 0.00 | 0.00 | 69 | 1013.3 |
| 20260901010020 | 86 | 285 | 0.0 | 0.0 | 0.00 | 0.00 | 0.00 | 70 | 1012.3 |
| 20260901004540 | 88 | 0 | 0.0 | 0.0 | 0.00 | 0.00 | 0.00 | 65 | 1013.2 |
| 20260901003046 | 90 | 0 | 0.0 | 0.0 | 0.00 | 0.00 | 0.00 | 61 | 1013.3 |
| 20260901001536 | 93 | 0 | 0.0 | 0.0 | 0.00 | 0.00 | 0.00 | 56 | 1013.2 |
| 20260901000036 | 94 | 0 | 0.0 | 3.0 | 0.00 | 0.00 | 0.00 | 50 | 1013.3 |
| 20260901000025 | 94 | 285 | 0.0 | 2.0 | 0.00 | 0.00 | 0.00 | 50 | 1012.2 |
| 20260831234534 | 94 | 267 | 1.0 | 4.0 | 0.00 | 0.00 | 0.00 | 50 | 1013.2 |
| 20260831233037 | 95 | 265 | 2.0 | 6.0 | 0.00 | 0.00 | 0.00 | 46 | 1013.3 |
| 20260831231534 | 96 | 255 | 3.0 | 9.0 | 0.00 | 0.00 | 0.00 | 44 | 1013.3 |
| 20260831230039 | 97 | 259 | 3.0 | 8.0 | 0.00 | 0.00 | 0.00 | 44 | 1013.2 |
| 20260831230019 | 98 | 259 | 3.0 | 7.0 | 0.00 | 0.00 | 0.00 | 45 | 1012.1 |
| 20260831224534 | 98 | 245 | 2.0 | 9.0 | 0.00 | 0.00 | 0.00 | 42 | 1013.2 |
| 20260831223044 | 98 | 284 | 3.0 | 9.0 | 0.00 | 0.00 | 0.00 | 42 | 1013.3 |
| 20260831221550 | 98 | 291 | 4.0 | 10.0 | 0.00 | 0.00 | 0.00 | 40 | 1013.4 |
| 20260831220038 | 99 | 265 | 2.0 | 6.0 | 0.00 | 0.00 | 0.00 | 42 | 1013.3 |
| 20260831220027 | 99 | 263 | 3.0 | 5.0 | 0.00 | 0.00 | 0.00 | 42 | 1012.2 |
| 20260831214534 | 99 | 268 | 2.0 | 9.0 | 0.00 | 0.00 | 0.00 | 41 | 1013.5 |
| 20260831213035 | 99 | 288 | 3.0 | 7.0 | 0.00 | 0.00 | 0.00 | 39 | 1013.5 |
| 20260831211544 | 99 | 296 | 1.0 | 4.0 | 0.00 | 0.00 | 0.00 | 43 | 1013.5 |
| 20260831210035 | 99 | 265 | 3.0 | 10.0 | 0.00 | 0.00 | 0.00 | 40 | 1013.7 |
| 20260831210023 | 99 | 261 | 3.0 | 9.0 | 0.00 | 0.00 | 0.00 | 41 | 1012.5 |
| 20260831204543 | 99 | 306 | 1.0 | 7.0 | 0.00 | 0.00 | 0.00 | 41 | 1013.8 |
| 20260831203046 | 98 | 277 | 3.0 | 11.0 | 0.00 | 0.00 | 0.00 | 40 | 1013.9 |
| 20260831201545 | 97 | 243 | 3.0 | 10.0 | 0.00 | 0.00 | 0.00 | 44 | 1014.0 |
| 20260831200041 | 97 | 288 | 4.0 | 12.0 | 0.00 | 0.00 | 0.00 | 43 | 1013.8 |
| 20260831200021 | 97 | 292 | 5.0 | 11.0 | 0.00 | 0.00 | 0.00 | 43 | 1012.7 |
| 20260831194540 | 96 | 323 | 3.0 | 11.0 | 0.00 | 0.00 | 0.00 | 43 | 1013.9 |
| 20260831193034 | 95 | 288 | 4.0 | 12.0 | 0.00 | 0.00 | 0.00 | 45 | 1014.0 |
| 20260831191533 | 95 | 256 | 3.0 | 12.0 | 0.00 | 0.00 | 0.00 | 45 | 1014.0 |
| 20260831190052 | 95 | 246 | 6.0 | 12.0 | 0.00 | 0.00 | 0.00 | 45 | 1014.2 |
| 20260831190031 | 95 | 275 | 7.0 | 11.0 | 0.00 | 0.00 | 0.00 | 45 | 1012.9 |
| 20260831184535 | 94 | 237 | 7.0 | 14.0 | 0.00 | 0.00 | 0.00 | 48 | 1014.2 |
| 20260831183035 | 93 | 274 | 4.0 | 12.0 | 0.00 | 0.00 | 0.00 | 48 | 1014.3 |
| 20260831181535 | 93 | 275 | 5.0 | 10.0 | 0.00 | 0.00 | 0.00 | 48 | 1014.6 |
| 20260831180049 | 92 | 238 | 7.0 | 11.0 | 0.00 | 0.00 | 0.00 | 49 | 1014.6 |
| 20260831180024 | 93 | 290 | 6.0 | 10.0 | 0.00 | 0.00 | 0.00 | 49 | 1013.4 |
| 20260831174536 | 91 | 306 | 6.0 | 14.0 | 0.00 | 0.00 | 0.00 | 52 | 1014.7 |
| 20260831173037 | 91 | 265 | 6.0 | 15.0 | 0.00 | 0.00 | 0.00 | 53 | 1014.7 |
| 20260831171538 | 90 | 291 | 6.0 | 12.0 | 0.00 | 0.00 | 0.00 | 52 | 1014.9 |
| 20260831170036 | 89 | 265 | 6.0 | 11.0 | 0.00 | 0.00 | 0.00 | 52 | 1015.0 |
| 20260831170022 | 90 | 255 | 6.0 | 10.0 | 0.00 | 0.00 | 0.00 | 53 | 1013.8 |
| 20260831164541 | 89 | 298 | 4.0 | 11.0 | 0.00 | 0.00 | 0.00 | 55 | 1015.0 |
| 20260831163037 | 88 | 277 | 6.0 | 11.0 | 0.00 | 0.00 | 0.00 | 55 | 1014.9 |
| 20260831161539 | 87 | 10 | 4.0 | 13.0 | 0.00 | 0.00 | 0.00 | 57 | 1015.0 |